Location: Mexico
(19.4000°N, 99.1500°W)
Time: 15:42:10
(UTC-06:00)

ISS - Pass Details

Date: 06 August 2020
Orbit: 418 x 420 km, 51.6° (Epoch: 08 August)

Event Time Altitude Azimuth Distance (km) Brightness Sun altitude
Rises 21:04:23 0° 314° (NW) 2,355 1.3 -25.6°
Reaches altitude 10° 21:06:31 10° 309° (NW) 1,491 0.0 -26.1°
Enters shadow 21:08:16 27° 295° (WNW) 838 -1.6 -26.4°
